Regional Weather Roundup
Issued by NWS Cleveland, OH

Home | Current Version | Previous Version | Graphics & Text | Print | Product List | Glossary On
Versions: 1 2 3 4 5 6 7 8 9 10 11 12 13 14 15 16 17 18 19 20 21 22 23 24 25 26 27 28 29 30 31 32 33 34 35 36 37 38 39 40 41 42 43 44 45 46 47 48 49 50
000
ASUS41 KCLE 292010
RWRCLE
OHIO REGIONAL WEATHER ROUNDUP
NATIONAL WEATHER SERVICE WILMINGTON, OH
400 PM EDT MON MAY 29 2017

NOTE: "FAIR" INDICATES FEW OR NO CLOUDS BELOW 12,000 FEET WITH NO
SIGNIFICANT WEATHER AND/OR OBSTRUCTIONS TO VISIBILITY.

OHZ001>008-015>018-024>027-034-035-043-044-292100-
   NORTHWEST OHIO

CITY           SKY/WX    TMP DP  RH WIND       PRES   REMARKS
DEFIANCE       FAIR      78  50  37 SW12G20   29.85F
FINDLAY        FAIR      80  50  34 SW16G23   29.87R
TOLEDO EXPRESS PTSUNNY   76  49  38 W17       29.84S
TOLEDO EXEC    FAIR      81  50  33 SW16      29.85R
LIMA           FAIR      78  51  38 W20       29.89S
$$

OHZ009>014-019>023-028>033-038-089-292100-
   NORTHEAST OHIO

CITY           SKY/WX    TMP DP  RH WIND       PRES   REMARKS
CLE-HOPKINS    PTSUNNY   81  52  36 SW18G29   29.87S
CLE-LAKEFRONT  FAIR      78  52  40 SW17G25   29.84S
CUY CO. ARPT   MOSUNNY   81  52  36 W17       29.87F
LORAIN-ELYRIA  FAIR      77  51  40 W15G26    29.87S
ASHTABULA      PTSUNNY   76  51  41 SW10      29.89S
AKRON-CANTON   PTSUNNY   79  49  34 SW14      29.90F
WOOSTER        PTSUNNY   75  52  44 SW10      29.91R
MANSFIELD      FAIR      76  52  43 SW14G24   29.90S
YOUNGSTOWN     PTSUNNY   77  53  43 SW13      29.91S
$$

OHZ042-051>053-060>062-070>072-077>081-292100-
  SOUTHWEST OHIO

CITY           SKY/WX    TMP DP  RH WIND       PRES   REMARKS
CINC-COVINGTON PTSUNNY   81  56  42 SW14G20   29.94F
CINC-LUNKEN    FAIR      80  57  45 SW15      29.93F
HAMILTON       FAIR      82  54  37 W15G22    29.93F
DAYTON         PTSUNNY   78  52  40 SW18G25   29.93S
WRIGHT-PAT AFB FAIR      80  51  36 SW13G26   29.91F
DAYTON GENERAL FAIR      79  51  37 SW14      29.92F
WILMINGTON     FAIR      79  57  46 SW21G28   29.94S
$$

OHZ036-037-039>041-045>050-054>059-063>069-073>076-082>088-292100-
  CENTRAL AND SOUTHEAST OHIO

CITY           SKY/WX    TMP DP  RH WIND       PRES   REMARKS
COLUMBUS       PTSUNNY   81  52  36 SW15G24   29.91S
OSU AIRPORT    PTSUNNY   77  53  43 SW13G21   29.92R
BOLTON FIELD   PTSUNNY   79  55  44 SW15G25   29.92F
RICKENBACK AFB FAIR      80  52  37 SW18G24   29.91F
NEWARK         FAIR      80  50  34 SW16G25   29.91F
MARION         FAIR      80  47  31 W21G29    29.90R
LANCASTER      PTSUNNY   81  51  35 SW14G23   29.93F
ZANESVILLE     PTSUNNY   76  52  43 SW7       29.94R
NEW PHILLY     FAIR      79  53  40 SW8       29.92F
$$



USA.gov is the U.S. government's official web portal to all federal, state and local government web resources and services.